Find SPOT 3

NORAD ID: 22823 Int'l Des: 1993-061 Owner: CNES Country: F operational
LEOCIRCULARRETROGRADESSO

Current View

Loading 3D Globe...

About SPOT 3

Description loading...

Upcoming Passes

Passes for default location (London). Set your location on the main map for personalized predictions.

Altitude History

Loading altitude history...

Two-Line Element Set

1 22823U 93061A 26151.19002838 .00000188 00000-0 10916-3 0 9999
2 22823 98.8576 215.1962 0015635 292.9023 67.0502 14.20089027692162
Epoch: May 31, 2026 • Age: 10 hours

Current Status

Altitude 837.2 km
Velocity 7.44 km/s
Sub-Earth Point -42.12°S, 72.48°W
Launch Date Sep 26, 1993
Age 32.6 years
Type earth observation

Technical Details

Classification Payload
Mass 1900.00 kg
Dry Mass 1750.00 kg
Total Mass 1900.00 kg
Length 4.50 m
Diameter 2.00 m
Span 8.20 m
Shape Box + Pan
Manufacturer MMST
Bus Type SPOT
Phase Status In Orbit
Owner/State CNES/F

Most Searched